,,Stat5,,Stat1,,Stat2,,Stat3,,Stat4,,Wind1,,Wind1,
time,status,PA1M_AVG,status,PR1M_SUM,status,RH1M_AVG,status,SR1M_AVG,status,TA1M_AVG,status,W1dAve1m,status,W1sAve1m,
2002-11-13, 00:00:00,VALID,917.284,VALID,0,VALID,97.6643,VALID,-0.0339617,VALID,21.3605,VALID,9,VALID,0.634079,
2002-11-13, 00:01:00,VALID,917.284,VALID,0,VALID,97.6936,VALID,-0.0339617,VALID,21.3737,VALID,1,VALID,0.263091,
2002-11-13, 00:02:00,VALID,917.269,VALID,0,VALID,97.663,VALID,-0.0169808,VALID,21.3665,VALID,10,VALID,0.332812,
2002-11-13, 00:03:00,VALID,917.271,VALID,0,VALID,97.6898,VALID,0,VALID,21.3705,VALID,14,VALID,0.56875,
2002-11-13, 00:04:00,VALID,917.281,VALID,0,VALID,97.7699,VALID,-0.0849042,VALID,21.4028,VALID,22,VALID,0.412695,
2002-11-13, 00:05:00,VALID,917.268,VALID,0,VALID,97.8144,VALID,-0.0339617,VALID,21.4319,VALID,25,VALID,0.712377,
2002-11-13, 00:06:00,VALID,917.266,VALID,0,VALID,97.6974,VALID,0,VALID,21.4149,VALID,11,VALID,0.701891,
2002-11-13, 00:07:00,VALID,917.272,VALID,0,VALID,97.8042,VALID,0,VALID,21.4375,VALID,26,VALID,0.795608,
2002-11-13, 00:08:00,VALID,917.254,VALID,0,VALID,97.7762,VALID,0,VALID,21.444,VALID,27,VALID,0.808066,
2002-11-13, 00:09:00,VALID,917.228,VALID,0,VALID,97.7444,VALID,-0.0169808,VALID,21.4405,VALID,22,VALID,0.903783,
2002-11-13, 00:10:00,VALID,917.217,VALID,0,VALID,97.7622,VALID,0,VALID,21.4569,VALID,20,VALID,0.610983,
2002-11-13, 00:11:00,VALID,917.197,VALID,0,VALID,97.677,VALID,0,VALID,21.447,VALID,26,VALID,0.49359,
2002-11-13, 00:12:00,VALID,917.175,VALID,0,VALID,97.616,VALID,-0.0169808,VALID,21.434,VALID,21,VALID,0.494591,
2002-11-13, 00:13:00,VALID,917.165,VALID,0,VALID,97.5435,VALID,0,VALID,21.4155,VALID,3,VALID,0.547545,
2002-11-13, 00:14:00,VALID,917.151,VALID,0,VALID,97.2892,VALID,0,VALID,21.3403,VALID,10,VALID,0.75514,
2002-11-13, 00:15:00,VALID,917.125,VALID,0,VALID,97.4151,VALID,0,VALID,21.315,VALID,2,VALID,0.622613,
2002-11-13, 00:16:00,VALID,917.1,VALID,0,VALID,97.5041,VALID,-0.0169808,VALID,21.3255,VALID,7,VALID,0.467311,
2002-11-13, 00:17:00,VALID,917.07,VALID,0,VALID,97.5168,VALID,-0.0169808,VALID,21.3148,VALID,267,VALID,0.505642,
2002-11-13, 00:18:00,VALID,917.052,VALID,0,VALID,97.5791,VALID,0.0169808,VALID,21.3051,VALID,343,VALID,0.528348,
2002-11-13, 00:19:00,VALID,917.03,VALID,0,VALID,97.6885,VALID,0,VALID,21.3209,VALID,22,VALID,0.465946,
2002-11-13, 00:20:00,VALID,917.006,VALID,0,VALID,97.766,VALID,0,VALID,21.3468,VALID,23,VALID,0.359375,
2002-11-13, 00:21:00,VALID,916.979,VALID,0,VALID,97.7978,VALID,0,VALID,21.3737,VALID,20,VALID,0.627539,
2002-11-13, 00:22:00,VALID,916.962,VALID,0,VALID,97.7444,VALID,0,VALID,21.367,VALID,19,VALID,0.470089,
2002-11-13, 00:23:00,VALID,916.949,VALID,0,VALID,97.7953,VALID,0,VALID,21.3597,VALID,16,VALID,0.174079,
2002-11-13, 00:24:00,VALID,916.935,VALID,0,VALID,97.8703,VALID,0,VALID,21.3691,VALID,9,VALID,0.0106908,
2002-11-13, 00:25:00,VALID,916.927,VALID,0,VALID,97.7304,VALID,0,VALID,21.36,VALID,6,VALID,0.125206,
2002-11-13, 00:26:00,VALID,916.907,VALID,0,VALID,97.5626,VALID,-0.0339617,VALID,21.3086,VALID,234,VALID,0.25918,
2002-11-13, 00:27:00,VALID,916.898,VALID,0,VALID,97.6452,VALID,-0.0169808,VALID,21.3056,VALID,220,VALID,0.0931166,
2002-11-13, 00:28:00,VALID,916.869,VALID,0,VALID,97.5486,VALID,-0.0169808,VALID,21.2636,VALID,216,VALID,0.35588,
2002-11-13, 00:29:00,VALID,916.858,VALID,0,VALID,97.5206,VALID,-0.0509425,VALID,21.2375,VALID,225,VALID,0.411607,
2002-11-13, 00:30:00,VALID,916.829,VALID,0,VALID,97.4303,VALID,0,VALID,21.2189,VALID,234,VALID,0.684544,
2002-11-13, 00:31:00,VALID,916.806,VALID,0,VALID,97.4087,VALID,-0.0169808,VALID,21.1602,VALID,234,VALID,0.494141,
2002-11-13, 00:32:00,VALID,916.777,VALID,0,VALID,97.5219,VALID,0,VALID,21.1475,VALID,223,VALID,0.628495,
2002-11-13, 00:33:00,VALID,916.752,VALID,0,VALID,97.6986,VALID,0,VALID,21.1206,VALID,208,VALID,0.372122,
2002-11-13, 00:34:00,VALID,916.72,VALID,0,VALID,97.808,VALID,0,VALID,21.1376,VALID,207,VALID,0.443051,
2002-11-13, 00:35:00,VALID,916.701,VALID,0,VALID,97.8678,VALID,0,VALID,21.1351,VALID,209,VALID,0.0931641,
2002-11-13, 00:36:00,VALID,916.685,VALID,0,VALID,97.9504,VALID,-0.0169808,VALID,21.1381,VALID,350,VALID,0.423109,
2002-11-13, 00:37:00,VALID,916.687,VALID,0,VALID,98.0801,VALID,-0.0169808,VALID,21.1704,VALID,18,VALID,0.618924,
2002-11-13, 00:38:00,VALID,916.68,VALID,0,VALID,98.1679,VALID,0,VALID,21.1987,VALID,24,VALID,0.481898,
2002-11-13, 00:39:00,VALID,916.67,VALID,0,VALID,98.2048,VALID,-0.0169808,VALID,21.2286,VALID,359,VALID,0.294071,
2002-11-13, 00:40:00,VALID,916.669,VALID,0,VALID,98.117,VALID,-0.0169808,VALID,21.2288,VALID,359,VALID,0.000211149,
2002-11-13, 00:41:00,VALID,916.645,VALID,0,VALID,98.0013,VALID,-0.0169808,VALID,21.1796,VALID,313,VALID,0.222005,
2002-11-13, 00:42:00,VALID,916.62,VALID,0,VALID,97.925,VALID,-0.0169808,VALID,21.1502,VALID,272,VALID,0.360777,
2002-11-13, 00:43:00,VALID,916.602,VALID,0,VALID,98.028,VALID,-0.0339617,VALID,21.154,VALID,13,VALID,0.168074,
2002-11-13, 00:44:00,VALID,916.591,VALID,0,VALID,98.2391,VALID,-0.0509425,VALID,21.227,VALID,20,VALID,0.101162,
2002-11-13, 00:45:00,VALID,916.581,VALID,0,VALID,98.3332,VALID,-0.0679233,VALID,21.2509,VALID,21,VALID,0.126334,
2002-11-13, 00:46:00,VALID,916.585,VALID,0,VALID,98.2378,VALID,-0.0509425,VALID,21.2773,VALID,21,VALID,0.0257601,
2002-11-13, 00:47:00,VALID,916.596,VALID,0,VALID,98.0916,VALID,-0.0339617,VALID,21.2477,VALID,33,VALID,0.744922,
2002-11-13, 00:48:00,VALID,916.62,VALID,0,VALID,97.9657,VALID,-0.0169808,VALID,21.2156,VALID,46,VALID,1.19671,
2002-11-13, 00:49:00,VALID,916.649,VALID,0,VALID,97.7673,VALID,0,VALID,21.1734,VALID,51,VALID,1.18535,
2002-11-13, 00:50:00,VALID,916.67,VALID,0,VALID,97.8322,VALID,0,VALID,21.1408,VALID,49,VALID,0.93051,
2002-11-13, 00:51:00,VALID,916.691,VALID,0.2,VALID,97.7457,VALID,-0.0169808,VALID,21.1219,VALID,81,VALID,1.07874,
2002-11-13, 00:52:00,VALID,916.703,VALID,0,VALID,97.8385,VALID,-0.0679233,VALID,21.116,VALID,84,VALID,0.956081,
2002-11-13, 00:53:00,VALID,916.731,VALID,0.2,VALID,97.78,VALID,-0.0339617,VALID,21.0896,VALID,111,VALID,1.02715,
2002-11-13, 00:54:00,VALID,916.738,VALID,0.6,VALID,97.8589,VALID,-0.0679233,VALID,21.0767,VALID,89,VALID,1.09353,
2002-11-13, 00:55:00,VALID,916.734,VALID,1.4,VALID,97.9314,VALID,-0.0169808,VALID,21.0412,VALID,143,VALID,2.14316,
2002-11-13, 00:56:00,VALID,916.722,VALID,0.8,VALID,97.9822,VALID,-0.0679233,VALID,21.0088,VALID,30,VALID,0.886513,
2002-11-13, 00:57:00,VALID,916.676,VALID,0.2,VALID,98.1831,VALID,-0.0169808,VALID,20.9992,VALID,12,VALID,1.8982,
2002-11-13, 00:58:00,VALID,916.667,VALID,0.2,VALID,98.3751,VALID,-0.0339617,VALID,21.0156,VALID,8,VALID,1.18524,
2002-11-13, 00:59:00,VALID,916.667,VALID,0.2,VALID,98.4044,VALID,-0.0509425,VALID,20.9965,VALID,349,VALID,1.29902,
2002-11-13, 01:00:00,VALID,916.656,VALID,0.2,VALID,98.4514,VALID,-0.0849042,VALID,20.9703,VALID,356,VALID,0.47759,
2002-11-13, 01:01:00,VALID,916.642,VALID,0,VALID,98.543,VALID,-0.0339617,VALID,20.9507,VALID,6,VALID,0.0505757,
2002-11-13, 01:02:00,VALID,916.665,VALID,0,VALID,98.66,VALID,-0.0169808,VALID,20.9542,VALID,342,VALID,0.160362,
2002-11-13, 01:03:00,VALID,916.668,VALID,0,VALID,98.7019,VALID,-0.0509425,VALID,20.944,VALID,190,VALID,0.496194,
2002-11-13, 01:04:00,VALID,916.665,VALID,0,VALID,98.749,VALID,-0.0169808,VALID,20.9612,VALID,64,VALID,0.809544,
2002-11-13, 01:05:00,VALID,916.672,VALID,0,VALID,98.7604,VALID,-0.0339617,VALID,20.9512,VALID,67,VALID,0.561678,
2002-11-13, 01:06:00,VALID,916.659,VALID,0,VALID,98.7477,VALID,-0.0509425,VALID,20.931,VALID,99,VALID,0.515234,
2002-11-13, 01:07:00,VALID,916.638,VALID,0,VALID,98.7426,VALID,-0.0169808,VALID,20.9124,VALID,132,VALID,0.919488,
2002-11-13, 01:08:00,VALID,916.623,VALID,0,VALID,98.8177,VALID,-0.0169808,VALID,20.8861,VALID,135,VALID,0.423564,
2002-11-13, 01:09:00,VALID,916.612,VALID,0,VALID,98.8851,VALID,-0.0339617,VALID,20.8893,VALID,143,VALID,0.312294,
2002-11-13, 01:10:00,VALID,916.591,VALID,0,VALID,98.9207,VALID,-0.0509425,VALID,20.906,VALID,150,VALID,0.148438,
2002-11-13, 01:11:00,VALID,916.593,VALID,0,VALID,98.9664,VALID,-0.0509425,VALID,20.9286,VALID,153,VALID,0.0713682,
2002-11-13, 01:12:00,VALID,916.577,VALID,0,VALID,98.9982,VALID,-0.0509425,VALID,20.9386,VALID,154,VALID,0.102385,
2002-11-13, 01:13:00,VALID,916.582,VALID,0,VALID,98.9855,VALID,-0.0339617,VALID,20.9512,VALID,154,VALID,0.135491,
2002-11-13, 01:14:00,VALID,916.583,VALID,0,VALID,99.0046,VALID,-0.0339617,VALID,20.9418,VALID,154,VALID,0.0448718,
2002-11-13, 01:15:00,VALID,916.592,VALID,0,VALID,99.0198,VALID,-0.0339617,VALID,20.9641,VALID,154,VALID,0.115668,
2002-11-13, 01:16:00,VALID,916.585,VALID,0,VALID,99.0313,VALID,-0.0679233,VALID,20.9571,VALID,155,VALID,0.324424,
2002-11-13, 01:17:00,VALID,916.569,VALID,0,VALID,99.0364,VALID,-0.0509425,VALID,20.9542,VALID,165,VALID,0.394737,
2002-11-13, 01:18:00,VALID,916.568,VALID,0,VALID,99.0402,VALID,-0.0339617,VALID,20.9577,VALID,166,VALID,0.134924,
2002-11-13, 01:19:00,VALID,916.555,VALID,0,VALID,99.0516,VALID,-0.0339617,VALID,20.9512,VALID,181,VALID,0.28125,
2002-11-13, 01:20:00,VALID,916.542,VALID,0,VALID,99.0338,VALID,-0.0339617,VALID,20.9186,VALID,196,VALID,0.230369,
2002-11-13, 01:21:00,VALID,916.53,VALID,0,VALID,99.0542,VALID,-0.0509425,VALID,20.9192,VALID,197,VALID,0.207732,
2002-11-13, 01:22:00,VALID,916.515,VALID,0,VALID,99.0758,VALID,-0.0849042,VALID,20.9348,VALID,209,VALID,0.255701,
2002-11-13, 01:23:00,VALID,916.487,VALID,0,VALID,99.0783,VALID,-0.0679233,VALID,20.9351,VALID,216,VALID,0.108774,
2002-11-13, 01:24:00,VALID,916.479,VALID,0,VALID,99.0872,VALID,-0.0509425,VALID,20.9286,VALID,228,VALID,0.120404,
2002-11-13, 01:25:00,VALID,916.473,VALID,0,VALID,99.1038,VALID,-0.0509425,VALID,20.9413,VALID,305,VALID,0.31875,
2002-11-13, 01:26:00,VALID,916.466,VALID,0,VALID,99.133,VALID,-0.0509425,VALID,21.0088,VALID,354,VALID,0.531661,
2002-11-13, 01:27:00,VALID,916.459,VALID,0,VALID,99.1623,VALID,-0.0169808,VALID,21.0584,VALID,5,VALID,0.702324,
2002-11-13, 01:28:00,VALID,916.445,VALID,0,VALID,99.175,VALID,-0.0339617,VALID,21.0807,VALID,9,VALID,0.613692,
2002-11-13, 01:29:00,VALID,916.438,VALID,0,VALID,99.1763,VALID,-0.0509425,VALID,21.0675,VALID,9,VALID,0.385938,
2002-11-13, 01:30:00,VALID,916.445,VALID,0,VALID,99.1572,VALID,-0.0679233,VALID,21.0611,VALID,6,VALID,0.321289,
2002-11-13, 01:31:00,VALID,916.422,VALID,0,VALID,99.1559,VALID,-0.0849042,VALID,21.0516,VALID,5,VALID,0.0691106,
2002-11-13, 01:32:00,VALID,916.418,VALID,0,VALID,99.1394,VALID,-0.0679233,VALID,21.0387,VALID,5,VALID,0,
2002-11-13, 01:33:00,VALID,916.395,VALID,0,VALID,99.1368,VALID,-0.0169808,VALID,21.0253,VALID,5,VALID,0.0544872,
2002-11-13, 01:34:00,VALID,916.39,VALID,0,VALID,99.1381,VALID,-0.0679233,VALID,21.0223,VALID,5,VALID,0.273638,
2002-11-13, 01:35:00,VALID,916.371,VALID,0,VALID,99.1496,VALID,0,VALID,21.0414,VALID,10,VALID,0.60114,
2002-11-13, 01:36:00,VALID,916.373,VALID,0,VALID,99.161,VALID,-0.0169808,VALID,21.0409,VALID,12,VALID,0.697316,
2002-11-13, 01:37:00,VALID,916.34,VALID,0.2,VALID,99.1546,VALID,-0.0169808,VALID,21.0282,VALID,12,VALID,0.578125,
2002-11-13, 01:38:00,VALID,916.322,VALID,0,VALID,99.1546,VALID,-0.0169808,VALID,21.0161,VALID,12,VALID,0.432726,
2002-11-13, 01:39:00,VALID,916.308,VALID,0.2,VALID,99.1534,VALID,-0.0339617,VALID,21.0088,VALID,22,VALID,0.13742,
2002-11-13, 01:40:00,VALID,916.272,VALID,0,VALID,99.1381,VALID,0,VALID,20.9733,VALID,42,VALID,0.291385,
2002-11-13, 01:41:00,VALID,916.259,VALID,0,VALID,99.1292,VALID,-0.0509425,VALID,20.9475,VALID,42,VALID,0.0905449,
2002-11-13, 01:42:00,VALID,916.242,VALID,0.2,VALID,99.1228,VALID,-0.0339617,VALID,20.9383,VALID,42,VALID,0,
2002-11-13, 01:43:00,VALID,916.241,VALID,0,VALID,99.1228,VALID,-0.0169808,VALID,20.9149,VALID,42,VALID,0.0590701,
2002-11-13, 01:44:00,VALID,916.247,VALID,0,VALID,99.0949,VALID,-0.0169808,VALID,20.889,VALID,54,VALID,0.25621,
2002-11-13, 01:45:00,VALID,916.244,VALID,0,VALID,99.1063,VALID,0,VALID,20.8731,VALID,64,VALID,0.191512,
2002-11-13, 01:46:00,VALID,916.255,VALID,0,VALID,99.1419,VALID,-0.0509425,VALID,20.8898,VALID,64,VALID,0.0137195,
2002-11-13, 01:47:00,VALID,916.252,VALID,0,VALID,99.1724,VALID,-0.0169808,VALID,20.8828,VALID,64,VALID,0.00200321,
2002-11-13, 01:48:00,VALID,916.245,VALID,0,VALID,99.1724,VALID,0,VALID,20.8993,VALID,64,VALID,0,
2002-11-13, 01:49:00,VALID,916.24,VALID,0,VALID,99.1712,VALID,-0.0169808,VALID,20.8761,VALID,63,VALID,0.0062934,
2002-11-13, 01:50:00,VALID,916.213,VALID,0,VALID,99.189,VALID,0,VALID,20.8729,VALID,357,VALID,0.383013,
2002-11-13, 01:51:00,VALID,916.203,VALID,0,VALID,99.1915,VALID,-0.0509425,VALID,20.8575,VALID,309,VALID,0.306296,
2002-11-13, 01:52:00,VALID,916.201,VALID,0,VALID,99.1979,VALID,-0.0509425,VALID,20.8545,VALID,341,VALID,0.209961,
2002-11-13, 01:53:00,VALID,916.19,VALID,0,VALID,99.1991,VALID,-0.0339617,VALID,20.8607,VALID,8,VALID,0.14412,
2002-11-13, 01:54:00,VALID,916.186,VALID,0,VALID,99.2106,VALID,0,VALID,20.8637,VALID,9,VALID,0.275174,
2002-11-13, 01:55:00,VALID,916.172,VALID,0,VALID,99.2055,VALID,-0.0169808,VALID,20.8737,VALID,57,VALID,0.494449,
2002-11-13, 01:56:00,VALID,916.178,VALID,0.2,VALID,99.1839,VALID,-0.0339617,VALID,20.8408,VALID,73,VALID,0.566797,
2002-11-13, 01:57:00,VALID,916.172,VALID,0,VALID,99.1902,VALID,-0.0679233,VALID,20.8123,VALID,79,VALID,0.447368,
2002-11-13, 01:58:00,VALID,916.164,VALID,0,VALID,99.1826,VALID,-0.0849042,VALID,20.7994,VALID,82,VALID,0.386719,
2002-11-13, 01:59:00,VALID,916.166,VALID,0,VALID,99.2055,VALID,-0.0339617,VALID,20.8023,VALID,82,VALID,0.24082,
2002-11-13, 02:00:00,VALID,916.151,VALID,0,VALID,99.2144,VALID,-0.0509425,VALID,20.809,VALID,82,VALID,0.172476,
2002-11-13, 02:01:00,VALID,916.145,VALID,0,VALID,99.2398,VALID,-0.0169808,VALID,20.8311,VALID,82,VALID,0,
2002-11-13, 02:02:00,VALID,916.138,VALID,0,VALID,99.2475,VALID,0,VALID,20.8441,VALID,82,VALID,0,
2002-11-13, 02:03:00,VALID,916.13,VALID,0,VALID,99.2576,VALID,-0.0339617,VALID,20.8535,VALID,82,VALID,0.0697115,
2002-11-13, 02:04:00,VALID,916.114,VALID,0,VALID,99.2525,VALID,-0.0679233,VALID,20.8637,VALID,82,VALID,0.17272,
2002-11-13, 02:05:00,VALID,916.109,VALID,0,VALID,99.2462,VALID,0.0509425,VALID,20.8559,VALID,82,VALID,0.0494088,
2002-11-13, 02:06:00,VALID,916.093,VALID,0,VALID,99.2678,VALID,0.0679233,VALID,20.8947,VALID,95,VALID,0.165396,
2002-11-13, 02:07:00,VALID,916.071,VALID,0,VALID,99.2742,VALID,0.0849042,VALID,20.8979,VALID,191,VALID,0.297297,
2002-11-13, 02:08:00,VALID,916.068,VALID,0,VALID,99.2716,VALID,0.0849042,VALID,20.9173,VALID,191,VALID,0.0632813,
2002-11-13, 02:09:00,VALID,916.068,VALID,0,VALID,99.2678,VALID,0.0849042,VALID,20.9074,VALID,188,VALID,0.201122,
2002-11-13, 02:10:00,VALID,916.068,VALID,0,VALID,99.2678,VALID,0.0849042,VALID,20.9114,VALID,177,VALID,0.171289,
2002-11-13, 02:11:00,VALID,916.081,VALID,0,VALID,99.2678,VALID,0.0339617,VALID,20.9079,VALID,173,VALID,0.164679,
2002-11-13, 02:12:00,VALID,916.08,VALID,0,VALID,99.278,VALID,0.0509425,VALID,20.9071,VALID,162,VALID,0.0495477,
2002-11-13, 02:13:00,VALID,916.086,VALID,0,VALID,99.2831,VALID,0.0679233,VALID,20.9329,VALID,162,VALID,0.126689,
2002-11-13, 02:14:00,VALID,916.109,VALID,0,VALID,99.2742,VALID,0.0849042,VALID,20.9273,VALID,146,VALID,0.301953,
2002-11-13, 02:15:00,VALID,916.116,VALID,0,VALID,99.2576,VALID,0.0339617,VALID,20.8944,VALID,117,VALID,0.263889,
2002-11-13, 02:16:00,VALID,916.132,VALID,0,VALID,99.2449,VALID,0.0679233,VALID,20.8853,VALID,117,VALID,0.108742,
2002-11-13, 02:17:00,VALID,916.127,VALID,0,VALID,99.2602,VALID,0.0339617,VALID,20.8818,VALID,116,VALID,0.0717516,
2002-11-13, 02:18:00,VALID,916.107,VALID,0,VALID,99.2691,VALID,0.0679233,VALID,20.9014,VALID,115,VALID,0.0255682,
2002-11-13, 02:19:00,VALID,916.092,VALID,0,VALID,99.2564,VALID,0.0679233,VALID,20.892,VALID,115,VALID,0,
2002-11-13, 02:20:00,VALID,916.076,VALID,0,VALID,99.2589,VALID,-0.0339617,VALID,20.851,VALID,115,VALID,0,
2002-11-13, 02:21:00,VALID,916.047,VALID,0,VALID,99.2551,VALID,-0.0339617,VALID,20.8379,VALID,115,VALID,0,
2002-11-13, 02:22:00,VALID,916.053,VALID,0,VALID,99.2602,VALID,-0.0509425,VALID,20.8446,VALID,115,VALID,0,
2002-11-13, 02:23:00,VALID,916.055,VALID,0,VALID,99.278,VALID,-0.0509425,VALID,20.861,VALID,115,VALID,0,
2002-11-13, 02:24:00,VALID,916.035,VALID,0,VALID,99.2945,VALID,0,VALID,20.8928,VALID,115,VALID,0,
2002-11-13, 02:25:00,VALID,916.056,VALID,0,VALID,99.2894,VALID,-0.0509425,VALID,20.8958,VALID,115,VALID,0,
2002-11-13, 02:26:00,VALID,916.034,VALID,0,VALID,99.2729,VALID,-0.0509425,VALID,20.8799,VALID,115,VALID,0,
2002-11-13, 02:27:00,VALID,916.022,VALID,0,VALID,99.2869,VALID,-0.0339617,VALID,20.8933,VALID,115,VALID,0,
2002-11-13, 02:28:00,VALID,916.007,VALID,0,VALID,99.2907,VALID,-0.0169808,VALID,20.903,VALID,115,VALID,0,
2002-11-13, 02:29:00,VALID,915.992,VALID,0,VALID,99.3098,VALID,-0.0169808,VALID,20.8955,VALID,136,VALID,0.225929,
2002-11-13, 02:30:00,VALID,915.965,VALID,0,VALID,99.2983,VALID,-0.0339617,VALID,20.896,VALID,160,VALID,0.146793,
2002-11-13, 02:31:00,VALID,915.961,VALID,0,VALID,99.3021,VALID,-0.0339617,VALID,20.8896,VALID,160,VALID,0.129241,
2002-11-13, 02:32:00,VALID,915.969,VALID,0,VALID,99.2996,VALID,-0.0169808,VALID,20.8766,VALID,185,VALID,0.179899,
2002-11-13, 02:33:00,VALID,915.967,VALID,0,VALID,99.3085,VALID,-0.0339617,VALID,20.8869,VALID,203,VALID,0.15111,
2002-11-13, 02:34:00,VALID,915.962,VALID,0,VALID,99.3047,VALID,-0.0509425,VALID,20.864,VALID,207,VALID,0.237723,
2002-11-13, 02:35:00,VALID,915.962,VALID,0,VALID,99.3072,VALID,0.0339617,VALID,20.8438,VALID,207,VALID,0.191306,
2002-11-13, 02:36:00,VALID,915.952,VALID,0,VALID,99.3123,VALID,0.0169808,VALID,20.8441,VALID,207,VALID,0.125217,
2002-11-13, 02:37:00,VALID,915.925,VALID,0,VALID,99.311,VALID,0,VALID,20.857,VALID,211,VALID,0.103618,
2002-11-13, 02:38:00,VALID,915.919,VALID,0,VALID,99.3149,VALID,0,VALID,20.8338,VALID,264,VALID,0.17866,
2002-11-13, 02:39:00,VALID,915.913,VALID,0,VALID,99.3212,VALID,0,VALID,20.86,VALID,275,VALID,0.169341,
2002-11-13, 02:40:00,VALID,915.903,VALID,0,VALID,99.3263,VALID,0,VALID,20.8495,VALID,280,VALID,0.195703,
2002-11-13, 02:41:00,VALID,915.894,VALID,0,VALID,99.3276,VALID,0,VALID,20.8632,VALID,333,VALID,0.238582,
2002-11-13, 02:42:00,VALID,915.884,VALID,0,VALID,99.3377,VALID,0,VALID,20.9116,VALID,352,VALID,0.1875,
2002-11-13, 02:43:00,VALID,915.886,VALID,0,VALID,99.3377,VALID,0,VALID,20.9504,VALID,356,VALID,0.183066,
2002-11-13, 02:44:00,VALID,915.872,VALID,0,VALID,99.3428,VALID,0,VALID,20.9951,VALID,355,VALID,0.1248,
2002-11-13, 02:45:00,VALID,915.883,VALID,0,VALID,99.3517,VALID,0,VALID,21.0056,VALID,355,VALID,0.0128676,
2002-11-13, 02:46:00,VALID,915.881,VALID,0,VALID,99.3568,VALID,0,VALID,20.9889,VALID,355,VALID,0.0396484,
2002-11-13, 02:47:00,VALID,915.889,VALID,0,VALID,99.3454,VALID,0.0169808,VALID,20.9698,VALID,355,VALID,0.0351563,
2002-11-13, 02:48:00,VALID,915.893,VALID,0,VALID,99.3479,VALID,0,VALID,20.9604,VALID,355,VALID,0,
2002-11-13, 02:49:00,VALID,915.891,VALID,0,VALID,99.3365,VALID,0,VALID,20.9337,VALID,6,VALID,0.226563,
2002-11-13, 02:50:00,VALID,915.872,VALID,0,VALID,99.3212,VALID,-0.0169808,VALID,20.9082,VALID,10,VALID,0.0417969,
2002-11-13, 02:51:00,VALID,915.85,VALID,0,VALID,99.3072,VALID,0,VALID,20.8853,VALID,10,VALID,0,
2002-11-13, 02:52:00,VALID,915.844,VALID,0,VALID,99.3136,VALID,0.0339617,VALID,20.9022,VALID,10,VALID,0,
2002-11-13, 02:53:00,VALID,915.822,VALID,0,VALID,99.3187,VALID,0.0169808,VALID,20.8985,VALID,10,VALID,0.00300481,
2002-11-13, 02:54:00,VALID,915.799,VALID,0,VALID,99.2945,VALID,0,VALID,20.8858,VALID,10,VALID,0.0102163,
2002-11-13, 02:55:00,VALID,915.798,VALID,0,VALID,99.2818,VALID,0,VALID,20.8406,VALID,10,VALID,0.0280449,
2002-11-13, 02:56:00,VALID,915.77,VALID,0,VALID,99.2653,VALID,0,VALID,20.8015,VALID,10,VALID,0,
2002-11-13, 02:57:00,VALID,915.746,VALID,0,VALID,99.2793,VALID,0,VALID,20.8018,VALID,10,VALID,0,
2002-11-13, 02:58:00,VALID,915.725,VALID,0,VALID,99.2869,VALID,0,VALID,20.7684,VALID,10,VALID,0.0184462,
2002-11-13, 02:59:00,VALID,915.701,VALID,0,VALID,99.2958,VALID,0,VALID,20.7754,VALID,6,VALID,0.192708,
2002-11-13, 03:00:00,VALID,915.685,VALID,0,VALID,99.2971,VALID,0,VALID,20.7628,VALID,337,VALID,0.211739,
2002-11-13, 03:01:00,VALID,915.651,VALID,0,VALID,99.2971,VALID,-0.0169808,VALID,20.773,VALID,320,VALID,0.23902,
2002-11-13, 03:02:00,VALID,915.615,VALID,0,VALID,99.3098,VALID,-0.0169808,VALID,20.7663,VALID,305,VALID,0.26863,
2002-11-13, 03:03:00,VALID,915.597,VALID,0,VALID,99.3072,VALID,0.0169808,VALID,20.7498,VALID,266,VALID,0.370683,
2002-11-13, 03:04:00,VALID,915.58,VALID,0,VALID,99.3136,VALID,0.0169808,VALID,20.7377,VALID,262,VALID,0.0626905,
2002-11-13, 03:05:00,VALID,915.56,VALID,0,VALID,99.3263,VALID,0,VALID,20.7469,VALID,293,VALID,0.115385,
2002-11-13, 03:06:00,VALID,915.566,VALID,0,VALID,99.325,VALID,0.0169808,VALID,20.7302,VALID,350,VALID,0.0905828,
2002-11-13, 03:07:00,VALID,915.575,VALID,0,VALID,99.3263,VALID,0,VALID,20.721,VALID,355,VALID,0.121951,
2002-11-13, 03:08:00,VALID,915.577,VALID,0,VALID,99.339,VALID,0,VALID,20.7372,VALID,40,VALID,0.595553,
2002-11-13, 03:09:00,VALID,915.587,VALID,0,VALID,99.3365,VALID,0,VALID,20.7305,VALID,36,VALID,0.639569,
2002-11-13, 03:10:00,VALID,915.575,VALID,0,VALID,99.3416,VALID,0,VALID,20.7436,VALID,34,VALID,0.697917,
2002-11-13, 03:11:00,VALID,915.561,VALID,0,VALID,99.3403,VALID,0.0169808,VALID,20.721,VALID,14,VALID,0.63762,
2002-11-13, 03:12:00,VALID,915.55,VALID,0,VALID,99.3454,VALID,0,VALID,20.7046,VALID,38,VALID,0.678539,
2002-11-13, 03:13:00,VALID,915.532,VALID,0,VALID,99.353,VALID,0,VALID,20.6922,VALID,46,VALID,0.718164,
2002-11-13, 03:14:00,VALID,915.515,VALID,0,VALID,99.3454,VALID,-0.0169808,VALID,20.6852,VALID,46,VALID,0.408512,
2002-11-13, 03:15:00,VALID,915.495,VALID,0,VALID,99.3428,VALID,-0.0509425,VALID,20.6793,VALID,45,VALID,0.266276,
2002-11-13, 03:16:00,VALID,915.472,VALID,0,VALID,99.3454,VALID,-0.0849042,VALID,20.6577,VALID,45,VALID,0.232936,
2002-11-13, 03:17:00,VALID,915.45,VALID,0,VALID,99.3428,VALID,-0.101885,VALID,20.6483,VALID,45,VALID,0.250391,
2002-11-13, 03:18:00,VALID,915.43,VALID,0,VALID,99.3416,VALID,-0.101885,VALID,20.6485,VALID,45,VALID,0.240337,
2002-11-13, 03:19:00,VALID,915.425,VALID,0,VALID,99.353,VALID,-0.118866,VALID,20.6386,VALID,27,VALID,0.276316,
2002-11-13, 03:20:00,VALID,915.415,VALID,0,VALID,99.3505,VALID,-0.0509425,VALID,20.6313,VALID,23,VALID,0.307227,
2002-11-13, 03:21:00,VALID,915.408,VALID,0,VALID,99.3556,VALID,-0.0509425,VALID,20.6251,VALID,7,VALID,0.422676,
2002-11-13, 03:22:00,VALID,915.424,VALID,0,VALID,99.3581,VALID,-0.0509425,VALID,20.5729,VALID,352,VALID,0.330659,
2002-11-13, 03:23:00,VALID,915.424,VALID,0,VALID,99.3441,VALID,-0.0849042,VALID,20.5613,VALID,352,VALID,0.33572,
2002-11-13, 03:24:00,VALID,915.43,VALID,0,VALID,99.3517,VALID,-0.0509425,VALID,20.5575,VALID,352,VALID,0.340545,
2002-11-13, 03:25:00,VALID,915.422,VALID,0,VALID,99.3581,VALID,-0.0169808,VALID,20.5605,VALID,355,VALID,0.349873,
2002-11-13, 03:26:00,VALID,915.429,VALID,0,VALID,99.367,VALID,-0.0509425,VALID,20.5864,VALID,4,VALID,0.419764,
2002-11-13, 03:27:00,VALID,915.415,VALID,0,VALID,99.3784,VALID,-0.0679233,VALID,20.5958,VALID,3,VALID,0.352325,
2002-11-13, 03:28:00,VALID,915.404,VALID,0,VALID,99.3899,VALID,-0.0339617,VALID,20.6189,VALID,16,VALID,0.527872,
2002-11-13, 03:29:00,VALID,915.399,VALID,0,VALID,99.3962,VALID,-0.0679233,VALID,20.6152,VALID,22,VALID,0.423242,
2002-11-13, 03:30:00,VALID,915.369,VALID,0,VALID,99.395,VALID,-0.0679233,VALID,20.6152,VALID,21,VALID,0.458133,
2002-11-13, 03:31:00,VALID,915.346,VALID,0.2,VALID,99.3924,VALID,-0.0509425,VALID,20.6284,VALID,13,VALID,0.303516,
2002-11-13, 03:32:00,VALID,915.316,VALID,0,VALID,99.3937,VALID,-0.101885,VALID,20.6254,VALID,13,VALID,0.155016,
2002-11-13, 03:33:00,VALID,915.283,VALID,0,VALID,99.3975,VALID,-0.0679233,VALID,20.6025,VALID,13,VALID,0.0164474,